Point Lay, AK

2:53 AM AKDT on June 23, 2017 (GMT -0800)
Point Lay

Weather History for PPIZ - July, 2013

Change the Weather History Date:

Wednesday, July 3, 2013

  Actual Average Record
Temperature  
Mean Temperature 50 °F -  
Max Temperature 56 °F 46 °F 70 °F (2012)
Min Temperature 43 °F 39 °F 32 °F (2002)
Degree Days  
Heating Degree Days 16    
Moisture  
Dew Point 47 °F    
Average Humidity 91    
Maximum Humidity 100    
Minimum Humidity 80    
Precipitation  
Precipitation 0.00 in - - ()
Sea Level Pressure  
Sea Level Pressure 29.66 in    
Wind  
Wind Speed 7 mph (West)    
Max Wind Speed 23 mph    
Max Gust Speed 29 mph    
Visibility 10 miles    
Events Rain    
Averages and records for this station are not official NWS values.
T = Trace of Precipitation, MM = Missing Value Source: NWS Daily Summary

Daily Weather History Graph

Daily Weather History Graph

Search for Another Location

Airport or City:

Trip Planner

Search our weather history database for the weather conditions in past years. The results will help you decide how hot, cold, wet, or windy it might be!

Date:

Astronomy

Dec. 31, 1969 Rise Set
Actual Time Sun does not set Sun does not set
Civil Twilight Sun does not set Sun does not set
Nautical Twilight Sun does not set Sun does not set
Astronomical Twilight Sun does not set Sun does not set
Moon 1:26 AM AKDT (7/3) 10:11 PM AKDT (7/3)
Length of Visible Light 24h 00m
Length of Day
24h 00m
Waning Crescent, 17% of the Moon is Illuminated
Jul 3
Waning Crescent
Jul 7
New
Jul 15
First Quarter
Jul 22
Full
Jul 29
Last Quarter

Hourly Weather History & Observations

Time (AKDT) Temp. Windchill Dew Point Humidity Pressure Visibility Wind Dir Wind Speed Gust Speed Precip Events Conditions
12:56 AM 56.8 °F - 50.9 °F 80% 29.60 in 10.0 mi NNE 8.1 mph - N/A   Partly Cloudy
1:56 AM 55.9 °F - 50.9 °F 83% 29.62 in 10.0 mi NE 6.9 mph - N/A   Clear
2:56 AM 54.9 °F - 52.0 °F 90% 29.62 in 10.0 mi NE 4.6 mph - N/A   Scattered Clouds
3:56 AM 53.6 °F - 51.8 °F 94% 29.61 in 10.0 mi North 3.5 mph - N/A   Mostly Cloudy
4:56 AM 52.0 °F - 50.0 °F 93% 29.62 in 10.0 mi North 6.9 mph - N/A   Mostly Cloudy
5:56 AM 52.0 °F - 50.0 °F 93% 29.61 in 10.0 mi North 9.2 mph - N/A   Partly Cloudy
6:56 AM 48.2 °F - 48.2 °F 100% 29.61 in 10.0 mi NE 5.8 mph - N/A   Scattered Clouds
7:56 AM 50.0 °F - 48.9 °F 96% 29.63 in 10.0 mi ENE 4.6 mph - N/A   Mostly Cloudy
7:59 AM 50.0 °F - 48.2 °F 94% 29.62 in 10.0 mi ENE 4.6 mph - N/A   Overcast
8:16 AM 51.8 °F - 48.2 °F 88% 29.62 in 10.0 mi Calm Calm - N/A   Mostly Cloudy
8:25 AM 51.8 °F - 50.0 °F 94% 29.62 in 10.0 mi Calm Calm - N/A   Mostly Cloudy
8:56 AM 52.9 °F - 50.9 °F 93% 29.63 in 10.0 mi Calm Calm - N/A   Overcast
9:56 AM 52.9 °F - 52.0 °F 97% 29.63 in 9.0 mi Calm Calm - N/A   Overcast
10:45 AM 50.0 °F - 46.4 °F 87% 29.63 in 10.0 mi SSW 11.5 mph - N/A   Mostly Cloudy
10:56 AM 48.9 °F - 45.9 °F 89% 29.65 in 10.0 mi SSW 11.5 mph - N/A   Mostly Cloudy
11:56 AM 45.9 °F 40.8 °F 43.0 °F 90% 29.66 in 10.0 mi WSW 10.4 mph - N/A   Mostly Cloudy
12:56 PM 45.9 °F 40.8 °F 43.0 °F 90% 29.67 in 10.0 mi WSW 10.4 mph - N/A   Mostly Cloudy
1:09 PM 44.6 °F 38.8 °F 42.8 °F 93% 29.66 in 10.0 mi West 11.5 mph - N/A   Mostly Cloudy
1:56 PM 43.9 °F 38.3 °F 43.0 °F 97% 29.68 in 10.0 mi WSW 10.4 mph - N/A   Overcast
2:56 PM 45.0 °F 40.6 °F 43.0 °F 93% 29.69 in 10.0 mi West 8.1 mph - N/A   Scattered Clouds
3:56 PM 46.4 °F 42.4 °F 42.8 °F 87% 29.68 in 10.0 mi West 8.1 mph - N/A   Mostly Cloudy
4:56 PM 46.9 °F - 43.0 °F 86% 29.69 in 10.0 mi West 6.9 mph - N/A   Clear
5:56 PM 46.9 °F - 43.9 °F 89% 29.69 in 10.0 mi WSW 6.9 mph - N/A   Scattered Clouds
6:56 PM 48.2 °F - 46.4 °F 93% 29.70 in 10.0 mi SSW 23.0 mph 28.8 mph N/A Rain Light Rain
7:56 PM 50.9 °F - 48.9 °F 93% 29.72 in 9.0 mi SSW 13.8 mph - 0.00 in Rain Light Rain
8:56 PM 47.8 °F - 46.9 °F 97% 29.73 in 10.0 mi WSW 6.9 mph - 0.00 in   Mostly Cloudy
9:56 PM 47.8 °F - 46.9 °F 97% 29.74 in 10.0 mi SW 4.6 mph - 0.00 in   Partly Cloudy
10:56 PM 50.9 °F - 47.8 °F 89% 29.75 in 10.0 mi WSW 5.8 mph - N/A   Clear
11:56 PM 52.0 °F - 47.8 °F 86% 29.76 in 10.0 mi Calm Calm - N/A   Clear